DW2770 Weather Reports


Display with metric or nautical units.
time (UTC)temp
F
wind
direction
speed
MPH
gust
MPH
rain 1hr
in
rain 24hr
in
rain mn
in
humidity
%
barometer
mb
20260506224521 64 294 2.0 6.0 0.00 0.00 0.00 67 1011.9
20260506223031 65 242 2.0 6.0 0.00 0.00 0.00 66 1011.8
20260506221512 65 271 2.0 4.0 0.00 0.00 0.00 67 1011.9
20260506220014 65 298 2.0 5.0 0.00 0.00 0.00 66 1012.0
20260506214520 66 219 2.0 4.0 0.00 0.00 0.00 65 1012.0
20260506213005 66 284 2.0 6.0 0.00 0.00 0.00 65 1012.2
20260506211507 66 320 1.0 3.0 0.00 0.00 0.00 55 1012.0
20260506210027 66 69 2.0 4.0 0.00 0.00 0.00 61 1011.9
20260506204502 66 90 3.0 8.0 0.00 0.00 0.00 73 1011.7
20260506203001 69 80 5.0 9.0 0.00 0.00 0.00 56 1011.7
20260506201510 69 34 0.0 1.0 0.00 0.00 0.00 45 1011.7
20260506200016 69 83 2.0 7.0 0.00 0.00 0.00 44 1011.1
20260506194517 68 105 5.0 9.0 0.00 0.00 0.00 48 1010.8
20260506193002 68 73 6.0 10.0 0.00 0.00 0.00 57 1011.3
20260506191510 68 103 4.0 10.0 0.00 0.00 0.00 55 1011.3
20260506190011 68 65 2.0 10.0 0.00 0.00 0.00 54 1010.5
20260506184515 67 102 5.0 9.0 0.00 0.00 0.00 54 1010.7
20260506183019 67 89 3.0 10.0 0.00 0.00 0.00 52 1010.8
20260506181507 67 72 4.0 9.0 0.00 0.00 0.00 52 1011.0
20260506180010 67 101 4.0 7.0 0.00 0.00 0.00 54 1011.2
20260506174510 67 81 3.0 9.0 0.00 0.00 0.00 55 1011.4
20260506173016 67 107 3.0 7.0 0.00 0.00 0.00 53 1011.4
20260506171516 68 97 4.0 7.0 0.00 0.00 0.00 48 1011.1
20260506170005 68 123 4.0 10.0 0.00 0.00 0.00 49 1011.1
20260506164532 68 70 5.0 11.0 0.00 0.00 0.00 50 1010.9
20260506163014 68 108 6.0 9.0 0.00 0.00 0.00 50 1011.2
20260506161522 68 115 7.0 10.0 0.00 0.00 0.00 48 1011.5
20260506160024 68 116 4.0 8.0 0.00 0.00 0.00 50 1011.8
20260506154508 68 105 6.0 9.0 0.00 0.00 0.00 49 1012.0
20260506153014 69 97 5.0 9.0 0.00 0.00 0.00 51 1012.1
20260506144511 68 92 6.0 10.0 0.00 0.00 0.00 58 1012.2
20260506143008 69 107 5.0 9.0 0.00 0.00 0.00 55 1012.2
20260506141508 68 98 4.0 10.0 0.00 0.00 0.00 65 1012.1
20260506140003 68 98 5.0 9.0 0.00 0.00 0.00 64 1012.2
20260506134504 69 88 5.0 9.0 0.00 0.00 0.00 60 1012.1
20260506133006 70 94 4.0 9.0 0.00 0.00 0.00 57 1012.4
20260506131512 70 84 5.0 9.0 0.00 0.00 0.00 51 1012.4
20260506130003 70 105 4.0 9.0 0.00 0.00 0.00 56 1012.6
20260506124505 70 94 5.0 12.0 0.00 0.00 0.00 55 1012.2
20260506123007 69 93 5.0 9.0 0.00 0.00 0.00 57 1012.3
20260506121512 70 98 4.0 10.0 0.00 0.00 0.00 58 1012.4
20260506120033 70 94 4.0 8.0 0.00 0.00 0.00 59 1012.4
20260506114505 70 95 3.0 9.0 0.00 0.00 0.00 55 1012.4
20260506113004 70 94 3.0 9.0 0.00 0.00 0.00 57 1012.4
20260506111508 71 57 2.0 10.0 0.00 0.00 0.00 53 1012.4
20260506110012 71 98 4.0 9.0 0.00 0.00 0.00 54 1012.4
20260506103017 70 97 6.0 9.0 0.00 0.00 0.00 58 1012.7
20260506101506 70 91 5.0 10.0 0.00 0.00 0.00 59 1012.7
20260506100012 69 103 3.0 7.0 0.00 0.00 0.00 62 1012.8
20260506094518 68 67 3.0 7.0 0.00 0.00 0.00 63 1012.9
20260506093022 68 74 2.0 7.0 0.00 0.00 0.00 62 1013.2
20260506091506 69 63 2.0 6.0 0.00 0.00 0.00 60 1013.1
20260506090007 68 69 2.0 4.0 0.00 0.00 0.00 64 1013.2
20260506073004 67 70 3.0 4.0 0.00 0.00 0.00 64 1013.0
20260506071503 66 49 2.0 6.0 0.00 0.00 0.00 70 1012.9
20260506061504 67 225 0.0 0.0 0.00 0.00 0.00 63 1013.7
20260506044504 63 339 1.0 3.0 0.00 0.00 0.00 71 1013.6
20260506043004 63 217 1.0 2.0 0.00 0.00 0.00 71 1013.3
20260506041505 63 206 3.0 5.0 0.00 0.00 0.00 70 1013.2
20260506040004 64 271 2.0 3.0 0.00 0.00 0.00 64 1013.1
20260506033004 64 215 1.0 3.0 0.00 0.00 0.00 67 1012.7
20260506031504 64 240 1.0 3.0 0.00 0.00 0.00 65 1012.6
20260506030008 63 249 2.0 5.0 0.00 0.00 0.00 66 1012.5
20260506021508 63 194 0.0 0.0 0.00 0.00 0.00 74 1012.4
20260506020008 63 119 0.0 2.0 0.00 0.00 0.00 72 1012.5
20260506014510 63 191 2.0 3.0 0.00 0.00 0.00 72 1012.6
20260506011511 64 237 0.0 4.0 0.00 0.00 0.00 75 1012.6
20260506004511 65 224 3.0 4.0 0.00 0.00 0.00 66 1012.6
20260506003013 66 183 0.0 6.0 0.00 0.00 0.00 60 1012.6
20260505234514 65 200 3.0 5.0 0.00 0.00 0.00 61 1013.2
20260505233016 63 177 3.0 5.0 0.00 0.00 0.00 70 1013.5